Location: Luna
(33.8188°N, 108.9564°W)
Time: 22:10:29
(UTC+00:00)

N. Korean satellite - Pass Details

Date: 30 November 2022
Orbit: 407 x 442 km, 97.3° (Epoch: 05 February)

Event Time Altitude Azimuth Distance (km) Brightness Sun altitude
Rises 12:17:48 0° 15° (NNE) 2,518 10.2 -21.2°
Reaches altitude 10° 12:19:53 10° 19° (NNE) 1,632 9.3 -20.8°
Maximum altitude 12:23:21 60° 100° (E) 535 7.0 -20.1°
Drops below altitude 10° 12:26:45 10° 181° (S) 1,597 9.3 -19.4°
Sets 12:28:47 0° 185° (S) 2,456 10.3 -19.0°
